DECAYED

STARLINK-2660, 48450 (Decayed)

Orbit data source: Space-Track

STARLINK-2660, 48450 was a payload satellite owned by SpaceX/Seattle (US) in LEO that was launched on Sun, 09 May 2021 UTC via an FALCON 9 launch vehicle from the Air Force Eastern Test Range (AFETR). Payload-class satellites include a variety of spacecraft equipped with specific instruments for various scientific and technological missions. These include communications satellites like Starlink; space stations such as the ISS; scientific satellites like the Hubble; Earth observation satellites from companies like Planet Labs, Umbra, and HawkEye 360; GPS; miniature CubeSats for education and research; and military/defense satellites.

Not visible in the next 10 days
Identifier
48450, 2021-040Y
Orbit
Decayed
Country
Flag of USUS
Related business
Manufacturer
SpaceX/Seattle
Mission
Decayed Commercial Communications
Bus & Motor
STARLINK, Unknown motor
Mass
260 kg wet, ~248 kg dry
Launch date (UTC)
2021-05-09 (5 years ago)
Launch vehicle
FALCON 9
Launch site
Air Force Eastern Test Range (AFETR)
Object type
Payload
Rocket body
Debris
Shape & HBR
Box + 1 Pan, 10.1 m
Radar Cross Section
13.562 m², Large (>1 m²)

Expand to show TLE details & history
Last TLE update: 6 months ago

TLE from 6 months ago
0 STARLINK-2660
1 48450U 21040Y   25355.39399528  .15395104  12624-4  18939-3 0  9996
2 48450  53.0305 139.0085 0005227 269.0671  90.9780 16.49452419255305
Epoch: 2025-12-21T09:27Z
TLE epoch observation values (Epoch: 2025-12-21T09:27:21.192Z)
Latitude
-0.00004°
Longitude
-93.03691°
Altitude
141.769 km
Speed
7.822 km/s
True Right ascension
09h 16m 02s
True Declination
0° 00' 00"
Sunlit
Object was in full shadow at epoch
Visualization orbit readout
Latitude
Unknown
Longitude
Unknown
Altitude
Unknown
Speed
Unknown
Apparent Right ascension
Unknown
Apparent Declination
Unknown
Sunlit
N/A
Visualization observer readout
Local Sidereal Time
21:30:35
Azimuth
Unknown
Elevation
Unknown
Doppler factor
Unknown
Orbital elements
Apogee altitude
144.477 km
Perigee altitude
137.661 km
Semi-major axis
6,519.206 km
Eccentricity
0.00052
Inclination
53.0305°
RAAN
139.0085°
Arg. of periapsis
269.0671°
True anomaly
91.03789°
Mean anomaly
90.978°
Eccentric anomaly
91.00794°
Mean motion
4.12336 °/min
Orbital period
87.31 mins
BSTAR
0.00018939
Loading maneuver chart data...
Computing Atmospheric mass density...

Documentation

Showing up to 5 results
|